• Join FlightAware (Why Join?)
  • Login
  • US Flag 
12:05PM EDT


 

Airport Tracker/Info


-or-


 

Live Flight TrackerFlight Track Log ✈ JTL909 ✈ 23-May-2013 ✈ KTUL - KDAL

Flight Track Log - Related Links

Times and Time Zones

All times are in EDT time to prevent confusion due to time zone crossing. See the JTL909 flight status page for this flight to view local times or setup timezone preferences in your user account.

Time Position Orientation Groundspeed Altitude Reporting Facility
EDT Latitude Longitude Course Direction KTS MPH feet Rate Location/Type
05:19PM 36.1858 -95.9008 185° South 162 186 1,500  Level Kansas City Center
05:20PM 36.1089 -95.9083 185° South 234 269 4,200 2,280 Climbing Kansas City Center
05:21PM 36.0728 -95.9233 199° South 241 277 5,600 1,080 Climbing Kansas City Center
05:22PM 36.0036 -95.9711 209° Southwest 280 322 6,000 300 Climbing Kansas City Center
05:22PM 35.9733 -95.9928 210° Southwest 293 337 6,100  Climbing Kansas City Center
05:23PM 35.9356 -96.0186 209° Southwest 282 325 6,000 120 Descending Kansas City Center
05:24PM 35.8539 -96.0272 185° South 295 339 6,300 1,140 Climbing Kansas City Center
05:25PM 35.7761 -96.0089 169° South 301 346 8,400 2,100 Climbing Kansas City Center
05:26PM 35.7044 -95.9631 153° Southeast 293 337 10,700 2,580 Climbing Kansas City Center
05:27PM 35.6094 -95.9531 175° South 298 343 13,800 2,700 Climbing Kansas City Center
05:28PM 35.5244 -95.9672 188° South 304 350 16,400 2,520 Climbing Kansas City Center
05:29PM 35.4350 -95.9831 188° South 318 366 19,100 2,340 Climbing Kansas City Center
05:30PM 35.3403 -95.9983 187° South 334 384 21,300 1,800 Climbing Kansas City Center
05:31PM 35.2775 -96.0097 188° South 341 392 21,900 420 Climbing Fort Worth Center
05:32PM 35.1608 -96.0294 188° South 386 444 22,000  Climbing Fort Worth Center
05:33PM 35.0422 -96.0492 188° South 420 483 22,000  Level Fort Worth Center
05:34PM 34.9236 -96.0689 188° South 427 491 22,000  Level Fort Worth Center
05:35PM 34.8047 -96.0883 188° South 432 497 22,000  Level Fort Worth Center
05:36PM 34.6881 -96.1053 187° South 432 497 22,000  Level Fort Worth Center
05:37PM 34.5694 -96.1275 189° South 432 497 22,000  Level Fort Worth Center
05:38PM 34.4508 -96.1467 188° South 432 497 22,000  Level Fort Worth Center
05:39PM 34.3342 -96.1636 187° South 432 497 22,000  Level Fort Worth Center
05:40PM 34.2133 -96.1853 188° South 432 497 22,000  Level Fort Worth Center
05:41PM 34.1175 -96.1992 187° South 432 497 22,000  Level Fort Worth Center
05:42PM 33.9778 -96.2211 187° South 427 491 22,000 -480 Level Fort Worth Center
05:43PM 33.8611 -96.2403 188° South 427 491 21,100 -1,920 Descending Fort Worth Center
05:44PM 33.7547 -96.2567 187° South 407 468 18,200 -2,820 Descending Fort Worth Center
05:45PM 33.6611 -96.2731 188° South 387 445 15,500 -2,820 Descending Fort Worth Center
05:46PM 33.5528 -96.2894 187° South 371 427 12,600 -2,400 Descending Fort Worth Center
05:47PM 33.4736 -96.3003 187° South 338 389 10,700 -1,500 Descending Fort Worth Center
05:48PM 33.3881 -96.3139 188° South 302 348 9,600 -840 Descending Fort Worth Center
05:49PM 33.3108 -96.3272 188° South 288 331 9,100 -360 Descending Fort Worth Center
05:50PM 33.2444 -96.3678 207° Southwest 276 318 8,900 -780 Descending Fort Worth Center
05:51PM 33.1992 -96.4353 231° Southwest 265 305 7,600 -1,500 Descending Fort Worth Center
05:52PM 33.1517 -96.5128 234° Southwest 286 329 6,000 -1,560 Descending Fort Worth Center
05:53PM 33.1189 -96.5900 243° Southwest 270 311 4,500 -1,080 Descending Fort Worth Center
05:53PM 33.0833 -96.6500 235° Southwest 232 267 4,000 -300 Descending Dallas / Fort Worth TRACON
05:54PM 33.0667 -96.7167 253° West 235 270 4,000 -120 Level Dallas / Fort Worth TRACON
05:55PM 33.0333 -96.7833 239° Southwest 239 275 3,800 -540 Descending Dallas / Fort Worth TRACON
05:56PM 32.9833 -96.8333 220° Southwest 228 262 3,000 -900 Descending Dallas / Fort Worth TRACON
05:57PM 32.9333 -96.8833 220° Southwest 220 253 2,100 -840 Descending Dallas / Fort Worth TRACON
05:58PM 32.8833 -96.9000 196° South 156 180 1,400 -660 Descending Dallas / Fort Worth TRACON
05:59PM 32.8667 -96.8667 121° Southeast 107 123 800 6,480 Descending Dallas / Fort Worth TRACON
06:02PM 32.7842 -96.8847 190° South 138 159 22,000 9,840 Climbing Fort Worth Center